Time,TemperatureF,DewpointF,PressureIn,WindDirection,WindDirectionDegrees,WindSpeedMPH,WindSpeedGustMPH,Humidity,HourlyPrecipIn,Conditions,Clouds,dailyrainin,SoftwareType,DateUTC
2013-01-16 00:02:00,55.0,24.0,30.40,NNW,341,1.0,-999.0,30,-99.99,,,-99.99,,2013-01-16 08:02:00,
2013-01-16 00:11:00,55.0,24.0,30.40,NNW,341,1.0,-999.0,30,-99.99,,,-99.99,,2013-01-16 08:11:00,
2013-01-16 00:22:00,55.0,23.0,30.40,East,97,0.0,-999.0,29,-99.99,,,-99.99,,2013-01-16 08:22:00,
2013-01-16 00:32:00,56.0,24.0,30.39,NNE,26,0.0,-999.0,29,-99.99,,,-99.99,,2013-01-16 08:32:00,
2013-01-16 00:42:00,56.0,24.0,30.39,NNE,26,0.0,-999.0,29,-99.99,,,-99.99,,2013-01-16 08:42:00,
2013-01-16 00:52:00,56.0,24.0,30.39,NNE,32,1.0,-999.0,29,-99.99,,,-99.99,,2013-01-16 08:52:00,
2013-01-16 01:02:00,56.0,24.0,30.38,North,355,1.0,-999.0,29,-99.99,,,-99.99,,2013-01-16 09:02:00,
2013-01-16 01:11:00,56.0,24.0,30.38,North,355,1.0,-999.0,29,-99.99,,,-99.99,,2013-01-16 09:11:00,
2013-01-16 01:22:00,57.0,25.0,30.37,North,5,1.0,-999.0,29,-99.99,,,-99.99,,2013-01-16 09:22:00,
2013-01-16 01:32:00,57.0,25.0,30.37,North,5,1.0,-999.0,29,-99.99,,,-99.99,,2013-01-16 09:32:00,
2013-01-16 01:42:00,57.0,25.0,30.37,North,5,1.0,-999.0,29,-99.99,,,-99.99,,2013-01-16 09:42:00,
2013-01-16 01:52:00,57.0,25.0,30.37,NE,34,2.0,-999.0,29,-99.99,,,-99.99,,2013-01-16 09:52:00,
2013-01-16 02:02:00,57.0,25.0,30.37,NE,56,2.0,-999.0,29,-99.99,,,-99.99,,2013-01-16 10:02:00,
2013-01-16 02:12:00,57.0,25.0,30.37,NE,56,2.0,-999.0,29,-99.99,,,-99.99,,2013-01-16 10:12:00,
2013-01-16 02:22:00,57.0,25.0,30.37,NE,56,2.0,-999.0,29,-99.99,,,-99.99,,2013-01-16 10:22:00,
2013-01-16 02:32:00,57.0,25.0,30.37,NNE,19,2.0,-999.0,29,-99.99,,,-99.99,,2013-01-16 10:32:00,
2013-01-16 02:42:00,57.0,25.0,30.37,NNE,19,2.0,-999.0,29,-99.99,,,-99.99,,2013-01-16 10:42:00,
2013-01-16 02:52:00,57.0,25.0,30.37,North,355,4.0,-999.0,29,-99.99,,,-99.99,,2013-01-16 10:52:00,
2013-01-16 03:02:00,57.0,25.0,30.38,NNW,346,2.0,-999.0,29,-99.99,,,-99.99,,2013-01-16 11:02:00,
2013-01-16 03:11:00,57.0,25.0,30.38,NNW,346,2.0,-999.0,29,-99.99,,,-99.99,,2013-01-16 11:11:00,
2013-01-16 03:22:00,57.0,25.0,30.38,NNW,347,1.0,-999.0,29,-99.99,,,-99.99,,2013-01-16 11:22:00,
2013-01-16 03:32:00,57.0,25.0,30.38,NNW,347,1.0,-999.0,29,-99.99,,,-99.99,,2013-01-16 11:32:00,
2013-01-16 03:42:00,57.0,25.0,30.38,NNW,347,1.0,-999.0,29,-99.99,,,-99.99,,2013-01-16 11:42:00,
2013-01-16 03:52:00,57.0,25.0,30.37,NNE,26,2.0,-999.0,29,-99.99,,,-99.99,,2013-01-16 11:52:00,
2013-01-16 04:03:00,57.0,25.0,30.37,NNE,32,3.0,-999.0,29,-99.99,,,-99.99,,2013-01-16 12:03:00,
2013-01-16 04:12:00,57.0,25.0,30.37,NNE,32,3.0,-999.0,29,-99.99,,,-99.99,,2013-01-16 12:12:00,
2013-01-16 04:22:00,57.0,26.0,30.37,NNE,17,2.0,-999.0,30,-99.99,,,-99.99,,2013-01-16 12:22:00,
2013-01-16 04:33:00,56.0,25.0,30.37,NNW,345,2.0,-999.0,30,-99.99,,,-99.99,,2013-01-16 12:33:00,
2013-01-16 04:42:00,56.0,25.0,30.37,NNW,345,2.0,-999.0,30,-99.99,,,-99.99,,2013-01-16 12:42:00,
2013-01-16 04:52:00,56.0,25.0,30.37,NNW,345,2.0,-999.0,30,-99.99,,,-99.99,,2013-01-16 12:52:00,
2013-01-16 05:02:00,56.0,26.0,30.37,ENE,67,1.0,-999.0,31,-99.99,,,-99.99,,2013-01-16 13:02:00,
2013-01-16 05:12:00,56.0,26.0,30.37,ENE,67,1.0,-999.0,31,-99.99,,,-99.99,,2013-01-16 13:12:00,
2013-01-16 05:22:00,56.0,26.0,30.37,NE,42,1.0,-999.0,31,-99.99,,,-99.99,,2013-01-16 13:22:00,
2013-01-16 05:32:00,56.0,26.0,30.36,NE,42,2.0,-999.0,31,-99.99,,,-99.99,,2013-01-16 13:32:00,
2013-01-16 05:42:00,56.0,26.0,30.36,NE,42,2.0,-999.0,31,-99.99,,,-99.99,,2013-01-16 13:42:00,
2013-01-16 05:52:00,55.0,25.0,30.36,NE,42,2.0,-999.0,31,-99.99,,,-99.99,,2013-01-16 13:52:00,
2013-01-16 06:02:00,56.0,26.0,30.36,NNE,12,2.0,-999.0,31,-99.99,,,-99.99,,2013-01-16 14:02:00,
2013-01-16 06:12:00,56.0,26.0,30.36,NNE,12,2.0,-999.0,31,-99.99,,,-99.99,,2013-01-16 14:12:00,
2013-01-16 06:22:00,55.0,25.0,30.36,ENE,66,1.0,-999.0,31,-99.99,,,-99.99,,2013-01-16 14:22:00,
2013-01-16 06:32:00,55.0,26.0,30.37,NE,51,1.0,-999.0,32,-99.99,,,-99.99,,2013-01-16 14:32:00,
2013-01-16 06:42:00,55.0,26.0,30.37,NE,51,1.0,-999.0,32,-99.99,,,-99.99,,2013-01-16 14:42:00,
2013-01-16 06:52:00,54.0,25.0,30.37,NE,35,1.0,-999.0,32,-99.99,,,-99.99,,2013-01-16 14:52:00,
2013-01-16 07:02:00,54.0,26.0,30.36,East,80,1.0,-999.0,33,-99.99,,,-99.99,,2013-01-16 15:02:00,
2013-01-16 07:12:00,54.0,26.0,30.36,East,80,1.0,-999.0,33,-99.99,,,-99.99,,2013-01-16 15:12:00,
2013-01-16 07:22:00,54.0,26.0,30.37,NE,48,1.0,-999.0,33,-99.99,,,-99.99,,2013-01-16 15:22:00,
2013-01-16 07:32:00,54.0,26.0,30.37,ENE,59,1.0,-999.0,33,-99.99,,,-99.99,,2013-01-16 15:32:00,
2013-01-16 07:42:00,54.0,26.0,30.37,ENE,59,1.0,-999.0,33,-99.99,,,-99.99,,2013-01-16 15:42:00,
2013-01-16 07:52:00,54.0,26.0,30.38,ENE,69,0.0,-999.0,34,-99.99,,,-99.99,,2013-01-16 15:52:00,
2013-01-16 08:03:00,55.0,26.0,30.38,ESE,115,1.0,-999.0,33,-99.99,,,-99.99,,2013-01-16 16:03:00,
2013-01-16 08:11:00,55.0,26.0,30.38,ESE,115,1.0,-999.0,33,-99.99,,,-99.99,,2013-01-16 16:11:00,
2013-01-16 08:22:00,56.0,27.0,30.39,NNE,31,2.0,-999.0,32,-99.99,,,-99.99,,2013-01-16 16:22:00,
2013-01-16 08:32:00,57.0,27.0,30.39,ESE,118,1.0,-999.0,32,-99.99,,,-99.99,,2013-01-16 16:32:00,
2013-01-16 08:42:00,57.0,27.0,30.39,ESE,118,1.0,-999.0,32,-99.99,,,-99.99,,2013-01-16 16:42:00,
2013-01-16 08:52:00,58.0,28.0,30.39,East,80,2.0,-999.0,31,-99.99,,,-99.99,,2013-01-16 16:52:00,
2013-01-16 09:02:00,59.0,28.0,30.39,East,82,4.0,-999.0,30,-99.99,,,-99.99,,2013-01-16 17:02:00,
2013-01-16 09:12:00,59.0,28.0,30.39,East,82,4.0,-999.0,30,-99.99,,,-99.99,,2013-01-16 17:12:00,
2013-01-16 09:22:00,59.0,28.0,30.38,East,91,3.0,-999.0,30,-99.99,,,-99.99,,2013-01-16 17:22:00,
2013-01-16 09:33:00,61.0,29.0,30.37,ENE,69,2.0,-999.0,29,-99.99,,,-99.99,,2013-01-16 17:33:00,
2013-01-16 09:43:00,61.0,29.0,30.37,ENE,69,2.0,-999.0,29,-99.99,,,-99.99,,2013-01-16 17:43:00,
2013-01-16 09:52:00,62.0,29.0,30.38,ENE,73,2.0,-999.0,28,-99.99,,,-99.99,,2013-01-16 17:52:00,
2013-01-16 10:02:00,63.0,29.0,30.37,ENE,77,2.0,-999.0,27,-99.99,,,-99.99,,2013-01-16 18:02:00,
2013-01-16 10:12:00,63.0,29.0,30.37,ENE,77,2.0,-999.0,27,-99.99,,,-99.99,,2013-01-16 18:12:00,
2013-01-16 10:22:00,64.0,28.0,30.36,East,98,3.0,-999.0,26,-99.99,,,-99.99,,2013-01-16 18:22:00,
2013-01-16 10:33:00,64.0,28.0,30.36,East,98,3.0,-999.0,26,-99.99,,,-99.99,,2013-01-16 18:33:00,
2013-01-16 10:42:00,64.0,28.0,30.36,East,98,3.0,-999.0,26,-99.99,,,-99.99,,2013-01-16 18:42:00,
2013-01-16 10:52:00,65.0,29.0,30.34,NNE,32,3.0,-999.0,26,-99.99,,,-99.99,,2013-01-16 18:52:00,
2013-01-16 11:02:00,65.0,29.0,30.35,NE,46,3.0,-999.0,26,-99.99,,,-99.99,,2013-01-16 19:02:00,
2013-01-16 11:12:00,65.0,29.0,30.35,NE,46,3.0,-999.0,26,-99.99,,,-99.99,,2013-01-16 19:12:00,
2013-01-16 11:22:00,65.0,28.0,30.34,East,84,4.0,-999.0,25,-99.99,,,-99.99,,2013-01-16 19:22:00,
2013-01-16 11:32:00,65.0,28.0,30.33,ENE,65,3.0,-999.0,25,-99.99,,,-99.99,,2013-01-16 19:32:00,
2013-01-16 11:42:00,65.0,28.0,30.33,ENE,65,3.0,-999.0,25,-99.99,,,-99.99,,2013-01-16 19:42:00,
2013-01-16 11:52:00,66.0,28.0,30.31,ENE,58,3.0,-999.0,24,-99.99,,,-99.99,,2013-01-16 19:52:00,
2013-01-16 12:02:00,66.0,28.0,30.31,ENE,69,2.0,-999.0,24,-99.99,,,-99.99,,2013-01-16 20:02:00,
2013-01-16 12:11:00,66.0,28.0,30.31,ENE,69,2.0,-999.0,24,-99.99,,,-99.99,,2013-01-16 20:11:00,
2013-01-16 12:22:00,67.0,29.0,30.29,NNW,348,1.0,-999.0,24,-99.99,,,-99.99,,2013-01-16 20:22:00,
2013-01-16 12:33:00,68.0,29.0,30.29,NE,34,3.0,-999.0,23,-99.99,,,-99.99,,2013-01-16 20:33:00,
2013-01-16 12:42:00,68.0,29.0,30.29,NE,34,3.0,-999.0,23,-99.99,,,-99.99,,2013-01-16 20:42:00,
2013-01-16 12:52:00,69.0,30.0,30.28,NNE,32,1.0,-999.0,23,-99.99,,,-99.99,,2013-01-16 20:52:00,
2013-01-16 13:02:00,69.0,30.0,30.27,ENE,65,2.0,-999.0,23,-99.99,,,-99.99,,2013-01-16 21:02:00,
2013-01-16 13:12:00,69.0,30.0,30.27,ENE,65,2.0,-999.0,23,-99.99,,,-99.99,,2013-01-16 21:12:00,
2013-01-16 13:22:00,69.0,29.0,30.25,NNW,342,2.0,-999.0,22,-99.99,,,-99.99,,2013-01-16 21:22:00,
2013-01-16 13:32:00,69.0,29.0,30.25,NNW,342,2.0,-999.0,22,-99.99,,,-99.99,,2013-01-16 21:32:00,
2013-01-16 13:42:00,69.0,29.0,30.25,NNW,342,2.0,-999.0,22,-99.99,,,-99.99,,2013-01-16 21:42:00,
2013-01-16 13:52:00,71.0,30.0,30.24,ENE,69,0.0,-999.0,22,-99.99,,,-99.99,,2013-01-16 21:52:00,
2013-01-16 14:02:00,71.0,29.0,30.23,East,81,1.0,-999.0,21,-99.99,,,-99.99,,2013-01-16 22:02:00,
2013-01-16 14:12:00,71.0,29.0,30.23,East,81,1.0,-999.0,21,-99.99,,,-99.99,,2013-01-16 22:12:00,
2013-01-16 14:22:00,71.0,30.0,30.22,East,83,1.0,-999.0,22,-99.99,,,-99.99,,2013-01-16 22:22:00,
2013-01-16 14:32:00,71.0,29.0,30.22,North,350,2.0,-999.0,21,-99.99,,,-99.99,,2013-01-16 22:32:00,
2013-01-16 14:42:00,71.0,29.0,30.22,North,350,2.0,-999.0,21,-99.99,,,-99.99,,2013-01-16 22:42:00,
2013-01-16 14:52:00,72.0,30.0,30.22,ESE,103,1.0,-999.0,21,-99.99,,,-99.99,,2013-01-16 22:52:00,
2013-01-16 15:02:00,71.0,29.0,30.21,East,97,1.0,-999.0,21,-99.99,,,-99.99,,2013-01-16 23:02:00,
2013-01-16 15:12:00,71.0,28.0,30.21,ENE,57,1.0,-999.0,20,-99.99,,,-99.99,,2013-01-16 23:12:00,
2013-01-16 15:22:00,71.0,28.0,30.21,ENE,57,1.0,-999.0,20,-99.99,,,-99.99,,2013-01-16 23:22:00,
2013-01-16 15:32:00,71.0,28.0,30.21,ENE,64,0.0,-999.0,20,-99.99,,,-99.99,,2013-01-16 23:32:00,
2013-01-16 15:42:00,71.0,28.0,30.21,ENE,64,0.0,-999.0,20,-99.99,,,-99.99,,2013-01-16 23:42:00,
2013-01-16 15:52:00,70.0,27.0,30.21,ENE,67,1.0,-999.0,20,-99.99,,,-99.99,,2013-01-16 23:52:00,
2013-01-16 16:02:00,70.0,27.0,30.21,ENE,69,2.0,-999.0,20,-99.99,,,-99.99,,2013-01-17 00:02:00,
2013-01-16 16:11:00,70.0,27.0,30.21,ENE,69,2.0,-999.0,20,-99.99,,,-99.99,,2013-01-17 00:11:00,
2013-01-16 16:22:00,70.0,27.0,30.21,ENE,67,1.0,-999.0,20,-99.99,,,-99.99,,2013-01-17 00:22:00,
2013-01-16 16:32:00,69.0,26.0,30.22,NE,53,0.0,-999.0,20,-99.99,,,-99.99,,2013-01-17 00:32:00,
2013-01-16 16:42:00,69.0,26.0,30.22,NE,53,0.0,-999.0,20,-99.99,,,-99.99,,2013-01-17 00:42:00,
2013-01-16 16:52:00,69.0,26.0,30.22,NE,53,0.0,-999.0,20,-99.99,,,-99.99,,2013-01-17 00:52:00,
2013-01-16 17:02:00,67.0,25.0,30.21,NNW,333,0.0,-999.0,20,-99.99,,,-99.99,,2013-01-17 01:02:00,
2013-01-16 17:11:00,67.0,25.0,30.21,NNW,333,0.0,-999.0,20,-99.99,,,-99.99,,2013-01-17 01:11:00,
2013-01-16 17:22:00,67.0,26.0,30.22,NE,40,1.0,-999.0,21,-99.99,,,-99.99,,2013-01-17 01:22:00,
2013-01-16 17:32:00,66.0,26.0,30.22,NE,46,0.0,-999.0,22,-99.99,,,-99.99,,2013-01-17 01:32:00,
2013-01-16 17:42:00,66.0,26.0,30.22,NE,46,0.0,-999.0,22,-99.99,,,-99.99,,2013-01-17 01:42:00,
2013-01-16 17:52:00,64.0,25.0,30.22,ENE,68,0.0,-999.0,23,-99.99,,,-99.99,,2013-01-17 01:52:00,
2013-01-16 18:02:00,64.0,24.0,30.22,NNW,348,1.0,-999.0,22,-99.99,,,-99.99,,2013-01-17 02:02:00,
2013-01-16 18:12:00,64.0,24.0,30.22,NNW,348,1.0,-999.0,22,-99.99,,,-99.99,,2013-01-17 02:12:00,
2013-01-16 18:22:00,65.0,24.0,30.22,NE,49,2.0,-999.0,21,-99.99,,,-99.99,,2013-01-17 02:22:00,
2013-01-16 18:32:00,65.0,24.0,30.22,NE,38,0.0,-999.0,21,-99.99,,,-99.99,,2013-01-17 02:32:00,
2013-01-16 18:42:00,65.0,24.0,30.22,NE,38,0.0,-999.0,21,-99.99,,,-99.99,,2013-01-17 02:42:00,
2013-01-16 18:52:00,65.0,24.0,30.22,NE,38,0.0,-999.0,21,-99.99,,,-99.99,,2013-01-17 02:52:00,
2013-01-16 19:02:00,65.0,24.0,30.22,NNE,30,2.0,-999.0,21,-99.99,,,-99.99,,2013-01-17 03:02:00,
2013-01-16 19:11:00,65.0,24.0,30.22,NNE,30,2.0,-999.0,21,-99.99,,,-99.99,,2013-01-17 03:11:00,
2013-01-16 19:22:00,64.0,23.0,30.23,East,101,2.0,-999.0,21,-99.99,,,-99.99,,2013-01-17 03:22:00,
2013-01-16 19:32:00,65.0,24.0,30.22,NNE,21,2.0,-999.0,21,-99.99,,,-99.99,,2013-01-17 03:32:00,
2013-01-16 19:42:00,65.0,24.0,30.22,NNE,21,2.0,-999.0,21,-99.99,,,-99.99,,2013-01-17 03:42:00,
2013-01-16 19:52:00,65.0,24.0,30.22,NNE,26,1.0,-999.0,21,-99.99,,,-99.99,,2013-01-17 03:52:00,
2013-01-16 20:02:00,65.0,23.0,30.21,SE,135,1.0,-999.0,20,-99.99,,,-99.99,,2013-01-17 04:02:00,
2013-01-16 20:12:00,65.0,23.0,30.22,ENE,63,2.0,-999.0,20,-99.99,,,-99.99,,2013-01-17 04:12:00,
2013-01-16 20:22:00,65.0,23.0,30.22,ENE,63,2.0,-999.0,20,-99.99,,,-99.99,,2013-01-17 04:22:00,
2013-01-16 20:32:00,65.0,23.0,30.21,NE,40,2.0,-999.0,20,-99.99,,,-99.99,,2013-01-17 04:32:00,
2013-01-16 20:42:00,65.0,23.0,30.21,NE,40,2.0,-999.0,20,-99.99,,,-99.99,,2013-01-17 04:42:00,
2013-01-16 20:52:00,65.0,23.0,30.21,NE,40,3.0,-999.0,20,-99.99,,,-99.99,,2013-01-17 04:52:00,
2013-01-16 21:03:00,66.0,24.0,30.20,NE,41,3.0,-999.0,20,-99.99,,,-99.99,,2013-01-17 05:03:00,
2013-01-16 21:12:00,66.0,24.0,30.20,NE,41,3.0,-999.0,20,-99.99,,,-99.99,,2013-01-17 05:12:00,
2013-01-16 21:22:00,65.0,23.0,30.19,NE,40,2.0,-999.0,20,-99.99,,,-99.99,,2013-01-17 05:22:00,
2013-01-16 21:32:00,65.0,23.0,30.19,ENE,67,4.0,-999.0,20,-99.99,,,-99.99,,2013-01-17 05:32:00,
2013-01-16 21:42:00,65.0,23.0,30.19,ENE,67,4.0,-999.0,20,-99.99,,,-99.99,,2013-01-17 05:42:00,
2013-01-16 21:52:00,65.0,23.0,30.19,ENE,59,2.0,-999.0,20,-99.99,,,-99.99,,2013-01-17 05:52:00,
2013-01-16 22:02:00,65.0,23.0,30.19,NE,40,3.0,-999.0,20,-99.99,,,-99.99,,2013-01-17 06:02:00,
2013-01-16 22:11:00,65.0,23.0,30.19,East,91,3.0,-999.0,20,-99.99,,,-99.99,,2013-01-17 06:11:00,
2013-01-16 22:22:00,65.0,23.0,30.19,East,91,3.0,-999.0,20,-99.99,,,-99.99,,2013-01-17 06:22:00,
2013-01-16 22:32:00,65.0,23.0,30.19,NNE,29,3.0,-999.0,20,-99.99,,,-99.99,,2013-01-17 06:32:00,
2013-01-16 22:42:00,65.0,23.0,30.19,NNE,29,3.0,-999.0,20,-99.99,,,-99.99,,2013-01-17 06:42:00,
2013-01-16 22:52:00,65.0,23.0,30.19,NNE,33,2.0,-999.0,20,-99.99,,,-99.99,,2013-01-17 06:52:00,
2013-01-16 23:02:00,65.0,23.0,30.19,ENE,58,2.0,-999.0,20,-99.99,,,-99.99,,2013-01-17 07:02:00,
2013-01-16 23:11:00,65.0,23.0,30.19,ENE,58,2.0,-999.0,20,-99.99,,,-99.99,,2013-01-17 07:11:00,
2013-01-16 23:22:00,65.0,23.0,30.18,East,83,1.0,-999.0,20,-99.99,,,-99.99,,2013-01-17 07:22:00,
2013-01-16 23:32:00,65.0,23.0,30.18,SW,221,1.0,-999.0,20,-99.99,,,-99.99,,2013-01-17 07:32:00,
2013-01-16 23:42:00,65.0,23.0,30.18,SW,221,1.0,-999.0,20,-99.99,,,-99.99,,2013-01-17 07:42:00,
2013-01-16 23:52:00,65.0,23.0,30.19,ESE,108,1.0,-999.0,20,-99.99,,,-99.99,,2013-01-17 07:52:00,